SRMSAT

Last updated on Thu Nov 21 2024 00:02:27 GMT+0000 (Coordinated Universal Time)

1 37841U 11058D 24325.25477692 .00000593 00000+0 17932-3 0 9997 2 37841 19.9726 292.7293 0011744 11.5940 111.0358 14.11287687676632
UTC large
Height (km)
Speed (km/s)
/
Latitude / Longitude
Inclination (degrees)
Orbital Period (minutes)
Azimuth
Elevation
Range (km)
Doppler Factor

Next 0 passes for location: London (51.5072 / 0.1276)

Sorry there are no passes over London.